Wind_Speed
12 6 3 3 6 6 12 19 22 24 23 22 24 24 24 22 19 21 26 25 26 27 24 21 23 24 23 18 11 15 23 26 36 48 51 50 52 51 45 39 36 37 37 38 40 42 41 38 32 30 34 36 34 34 35 36 34 33 33 34 33 32 29 27 25 23 22 22 21 21 21 20 19 18 17 17 18 18 17 17 18 19 20 20 20 20 20
14 10 6 6 9 9 11 16 19 22 23 21 22 24 25 26 26 27 26 26 28 27 23 21 23 24 22 16 10 13 21 24 30 43 52 53 51 48 42 37 35 36 37 37 38 41 40 37 32 30 33 34 34 34 35 35 34 33 33 34 33 31 29 27 25 24 23 23 22 22 21 20 19 18 18 18 18 18 18 18 18 20 21 21 21 20 19
16 15 12 6 8 9 9 13 16 17 19 21 23 25 24 25 27 25 23 27 29 24 20 21 23 24 20 14 11 14 20 25 28 34 43 48 47 44 41 38 37 36 36 37 38 38 38 35 32 30 31 32 32 34 34 34 34 33 33 33 31 31 30 28 26 25 25 24 22 21 20 19 19 19 19 19 18 18 18 18 19 20 21 21 21 20 20
18 20 22 14 4 4 5 11 16 17 19 22 23 21 20 21 24 21 20 25 26 19 15 19 24 23 19 12 12 13 18 28 32 31 35 39 40 42 41 40 40 39 38 38 38 36 34 33 32 30 29 30 32 34 34 34 33 32 31 31 30 30 30 29 27 26 26 24 23 21 20 19 20 20 20 19 18 18 17 18 19 19 19 19 20 20 20
20 25 28 18 3 1 3 7 12 15 19 21 20 17 18 20 21 21 21 22 20 16 15 21 27 22 15 10 9 11 15 27 36 35 35 38 38 39 40 39 39 39 38 37 36 33 32 32 31 29 28 29 31 33 34 34 33 32 30 29 29 29 30 29 28 27 26 24 23 22 20 20 20 21 21 19 18 17 17 18 19 19 19 18 18 19 20
19 26 29 17 3 1 1 2 3 7 12 15 18 18 18 19 20 22 25 23 18 16 20 28 29 17 8 3 6 9 11 22 37 41 40 40 39 38 38 36 36 37 36 35 34 33 32 32 30 28 27 28 30 32 35 35 33 32 30 30 30 29 29 28 28 27 26 24 23 22 21 21 22 22 21 19 18 17 18 19 19 19 19 18 18 18 19
19 25 24 12 2 4 5 2 2 4 5 8 14 17 15 15 17 21 24 24 22 21 23 23 14 1 5 8 7 2 3 10 23 34 42 45 41 37 36 34 34 34 35 35 34 32 32 32 31 30 29 29 31 33 35 36 35 34 32 31 31 30 29 29 28 27 26 25 24 23 22 22 22 23 22 20 18 18 18 19 19 20 20 19 18 18 18
17 18 14 7 9 11 6 1 5 5 2 3 10 14 12 13 17 20 20 20 21 20 20 15 2 5 2 8 9 6 3 1 4 15 30 40 39 36 34 33 34 35 36 35 32 30 30 31 32 32 31 31 32 33 35 36 37 36 35 34 33 31 31 30 28 27 26 25 25 24 23 23 24 23 22 20 18 18 18 19 20 20 20 20 19 18 18
13 14 13 13 15 9 8 7 3 3 0 4 4 9 10 11 15 17 14 14 19 18 16 15 7 4 12 10 3 6 8 5 2 1 5 14 23 32 37 36 34 34 34 32 29 28 31 33 33 33 32 33 33 34 35 37 39 39 38 36 35 33 33 31 28 27 26 26 25 24 23 24 24 24 22 20 19 18 18 19 20 20 20 20 19 19 19
12 14 12 11 9 3 6 12 12 5 5 6 4 5 8 9 11 13 9 10 16 18 16 16 13 14 20 14 3 6 13 10 3 1 1 2 10 23 32 34 33 33 33 32 31 31 33 34 34 33 32 34 35 35 36 38 40 41 40 38 36 35 33 30 27 26 26 26 25 24 24 24 25 24 23 21 19 18 18 18 19 20 20 20 20 19 19
12 12 7 3 3 4 7 14 16 14 9 4 2 5 8 8 10 13 12 11 12 16 18 18 17 21 25 21 9 8 12 12 8 8 7 5 10 19 25 28 30 31 33 33 33 34 35 35 35 34 33 35 36 36 37 39 41 41 40 38 36 34 32 29 27 26 26 26 25 24 24 24 24 24 22 20 19 19 19 19 20 21 21 21 20 19 19
15 14 9 7 8 9 12 14 17 17 10 2 1 4 7 7 6 8 11 14 15 18 21 21 20 22 24 21 14 10 9 10 9 11 13 10 11 17 23 27 30 30 32 33 34 35 36 37 37 36 36 36 37 37 38 39 40 40 39 37 35 33 31 28 26 25 25 25 25 24 23 23 24 24 23 21 20 20 20 21 21 21 21 20 19 18 19
17 15 13 13 13 12 12 13 15 14 7 0 3 5 5 7 8 7 8 10 13 18 22 22 23 23 23 23 19 12 10 10 8 10 13 12 11 14 18 24 31 34 35 35 33 32 33 35 36 37 37 37 36 37 37 38 39 38 36 35 33 32 30 27 26 26 24 23 23 23 22 24 25 25 24 22 21 21 22 22 22 21 20 19 19 19 20
18 15 13 13 11 13 14 13 11 9 6 3 5 7 9 11 12 11 12 11 9 12 18 21 24 25 24 24 20 13 11 12 11 11 13 13 14 16 18 23 30 36 39 37 34 32 32 33 34 35 36 36 36 36 36 37 38 36 34 34 32 31 29 27 26 26 24 23 23 23 24 24 25 25 23 22 22 23 23 23 21 19 18 19 20 20 21
18 13 10 8 11 19 22 17 11 9 9 10 10 9 10 11 11 11 13 14 14 13 16 20 24 25 24 23 20 15 14 14 14 15 16 17 18 19 21 25 29 36 39 37 36 36 35 35 36 35 36 35 35 35 36 36 36 35 34 33 31 30 28 26 25 24 22 22 23 24 23 23 23 24 24 23 23 23 22 21 19 17 18 20 20 20 21
16 11 10 11 16 25 25 19 17 15 12 12 12 10 10 10 9 10 12 14 16 17 17 20 23 22 22 22 21 19 18 16 16 17 18 20 20 19 22 27 30 34 38 37 36 38 39 38 38 37 36 35 34 35 36 36 35 34 34 32 30 28 27 25 24 23 23 23 23 23 22 23 23 24 24 23 23 21 19 18 17 17 18 19 20 21 20
21 15 16 19 23 26 24 20 19 16 12 11 11 9 9 10 10 10 11 14 16 18 19 21 23 22 21 22 23 22 21 20 19 19 20 21 21 20 23 29 32 34 36 36 34 36 38 39 39 37 36 35 34 34 34 34 34 34 33 31 29 27 26 24 24 24 24 23 23 22 22 22 22 22 22 22 20 19 18 18 18 17 17 18 19 19 15
26 18 17 21 23 23 22 20 19 16 11 10 9 6 5 8 10 10 11 14 16 18 19 21 22 23 21 21 23 24 24 23 22 23 23 23 23 24 24 29 33 34 37 37 35 34 36 37 37 37 37 35 33 32 32 32 33 33 31 29 27 25 23 23 24 24 22 22 23 22 21 21 20 20 20 19 18 18 17 16 15 15 14 14 14 14 13
28 21 19 22 24 22 21 21 21 15 9 6 6 5 5 7 9 8 9 13 16 19 21 21 20 19 17 18 22 24 24 23 23 23 24 24 25 27 27 25 29 34 37 38 38 37 36 36 37 39 38 35 32 31 30 30 30 31 29 28 26 25 23 24 24 23 21 21 21 21 20 19 19 19 19 19 18 17 15 14 13 12 12 11 10 12 16
26 21 22 26 25 21 21 24 23 14 6 4 5 5 4 6 8 9 8 10 12 14 18 19 16 15 15 16 18 19 20 21 22 23 24 27 29 28 26 24 24 31 38 40 41 42 42 41 41 39 35 32 30 29 27 28 28 27 26 26 27 26 25 24 24 23 21 21 20 19 18 18 18 18 18 17 16 14 13 13 12 12 12 12 11 12 16
24 22 26 30 28 22 20 24 25 17 8 5 4 5 5 4 6 7 9 8 5 7 12 14 13 12 15 15 15 16 18 19 21 23 25 28 28 25 23 24 24 27 34 40 41 41 40 39 36 33 30 29 28 26 25 27 28 27 26 26 26 26 25 24 23 22 21 20 20 19 18 18 18 17 17 16 15 14 13 13 12 12 13 14 13 14 18
26 23 25 29 31 28 25 26 27 22 14 7 4 4 6 6 5 6 9 10 7 2 3 4 5 8 14 16 17 18 20 21 23 26 28 28 26 24 23 24 23 21 23 27 30 33 35 34 32 30 29 27 24 26 28 29 29 29 28 26 26 26 25 24 22 22 21 20 20 19 18 18 18 17 16 15 14 13 13 13 13 13 14 15 16 18 20
24 21 21 24 28 30 28 27 27 25 20 11 5 4 6 7 7 7 9 11 11 9 8 7 3 4 9 13 16 18 21 24 27 28 27 24 21 21 21 19 19 17 16 16 20 25 29 29 28 28 27 25 26 28 29 28 28 29 27 25 25 26 26 24 22 21 20 20 19 18 17 17 17 17 16 15 14 14 14 14 14 15 16 17 18 18 18
20 19 19 22 25 26 26 27 27 26 22 16 9 5 4 6 7 8 10 11 12 12 13 10 6 2 1 5 8 10 13 16 18 19 18 13 10 12 14 13 13 13 11 10 13 18 22 22 23 25 24 24 26 28 27 25 26 26 26 25 25 24 23 23 21 20 19 18 18 17 17 17 17 17 16 16 17 17 16 16 16 17 18 18 18 18 19
20 19 19 21 22 21 23 25 26 24 20 16 12 6 2 3 6 8 10 10 10 11 11 9 8 7 6 5 4 4 4 6 7 7 7 4 2 4 8 9 8 7 8 8 10 14 18 19 20 22 21 21 23 24 24 24 24 23 24 24 24 23 22 21 19 18 17 16 16 15 16 16 17 18 18 19 19 18 17 17 17 18 19 20 19 20 21
17 19 20 19 17 17 20 23 24 22 17 13 12 9 6 4 4 4 9 10 10 10 10 9 8 7 6 7 7 8 8 3 5 9 6 5 4 2 3 6 7 8 10 10 12 16 20 19 19 19 18 19 20 20 20 21 22 22 22 22 22 21 20 18 17 16 16 15 15 15 16 16 18 19 19 18 17 16 16 17 18 19 20 21 21 22 23
12 15 19 19 17 17 20 21 21 20 17 13 11 10 8 7 6 2 8 11 10 10 10 10 9 8 6 6 7 9 12 10 6 9 9 9 8 5 1 4 7 11 14 15 15 17 20 20 21 20 19 19 18 17 18 20 21 21 21 20 19 19 18 17 17 16 15 16 16 16 16 17 20 22 20 18 18 19 19 20 20 21 21 22 22 23 23
11 12 14 17 19 19 19 18 17 18 19 16 11 7 7 8 9 4 5 7 8 9 9 9 10 9 7 8 7 7 9 11 8 8 10 12 11 8 6 8 9 11 14 16 17 17 18 18 18 17 17 17 16 16 16 17 17 17 17 16 16 17 16 16 16 15 15 17 17 18 19 21 23 22 20 19 20 22 22 23 24 23 22 22 21 21 21
12 12 13 15 18 19 18 16 14 16 18 17 12 8 6 7 8 6 2 2 3 5 6 6 8 8 8 8 7 6 6 8 8 8 7 8 8 8 9 10 11 12 13 16 18 19 18 14 12 12 12 13 14 13 14 15 14 14 13 13 13 14 14 14 15 15 15 17 19 21 24 25 24 23 22 22 22 21 21 22 24 23 21 20 20 20 22
13 13 14 15 16 17 16 14 13 14 15 15 13 11 9 7 8 9 7 4 3 0 2 3 4 6 6 6 6 6 5 5 6 6 4 4 5 6 6 8 10 12 13 16 20 21 19 14 11 11 12 13 12 9 9 10 10 10 11 11 12 13 14 15 15 16 16 18 20 22 23 23 22 22 22 21 20 20 21 23 23 22 20 19 20 21 23
17 16 17 17 16 15 15 15 16 16 16 14 12 12 11 10 10 10 8 6 7 6 4 2 2 3 4 4 4 5 6 6 6 6 5 5 6 6 6 8 11 12 13 15 19 21 20 17 14 13 13 13 12 10 9 10 11 11 12 14 15 15 16 16 17 18 19 20 21 21 20 20 19 20 20 19 19 21 23 23 22 20 20 20 21 21 22
22 20 18 17 15 14 15 17 19 20 17 14 13 13 13 11 11 11 9 8 9 10 9 7 5 4 4 3 3 3 4 5 6 6 6 6 7 8 8 8 10 13 15 16 17 18 19 18 16 17 17 16 16 16 15 15 15 14 15 16 16 16 16 16 18 19 21 21 20 19 19 20 20 20 20 20 21 21 21 21 20 20 21 21 21 22 22
22 21 18 16 16 15 15 17 20 20 17 14 13 14 14 13 13 14 13 11 9 10 10 9 8 7 7 6 4 3 3 3 4 5 7 8 8 10 10 10 11 13 14 15 16 18 19 18 17 17 18 17 16 16 15 14 15 15 15 15 15 15 16 17 18 19 19 19 18 18 19 19 19 20 19 20 20 20 20 20 21 21 21 21 22 22 22
18 19 18 18 19 18 15 15 18 19 15 13 13 14 14 15 16 16 15 14 11 9 9 9 9 9 10 9 7 5 4 4 4 5 6 7 9 10 10 11 12 13 14 14 15 16 17 17 16 16 18 19 18 17 15 15 15 15 14 14 14 15 15 15 17 17 16 16 16 17 17 18 18 18 18 18 18 19 19 20 20 20 21 21 22 22 23
17 19 19 19 19 19 17 15 16 17 15 14 14 14 14 15 15 15 17 16 12 9 8 9 10 10 9 9 9 8 7 7 7 6 6 6 7 8 9 10 11 13 15 16 17 16 17 18 18 18 19 20 19 18 16 16 16 16 16 15 15 15 15 15 15 15 15 15 15 15 15 16 16 16 17 17 18 19 19 20 20 20 21 21 22 22 22
19 20 20 20 21 21 20 19 17 15 14 15 15 15 15 15 15 16 17 14 9 9 8 8 9 9 9 9 9 9 9 9 9 7 6 6 6 7 8 9 9 9 11 12 13 15 16 17 18 18 18 18 18 17 16 16 17 17 18 17 16 16 15 15 14 14 14 13 13 13 14 14 15 16 17 18 19 20 20 20 21 21 22 21 21 21 21
19 19 20 21 22 23 23 22 20 16 13 14 15 15 14 14 15 16 15 10 6 7 9 10 10 10 11 10 10 11 11 10 9 7 7 8 8 8 9 9 9 9 9 9 9 11 13 14 15 16 17 16 16 15 16 16 17 17 18 17 16 16 15 13 13 13 13 13 13 13 13 14 15 16 17 18 19 20 20 21 21 21 21 21 21 20 20
19 19 20 21 22 23 23 23 22 18 13 12 15 15 14 14 14 14 13 10 8 8 10 11 12 14 14 12 12 13 13 12 10 9 10 10 10 10 10 10 10 10 10 10 10 12 13 13 12 13 14 14 15 15 15 15 15 16 16 16 15 14 13 12 12 12 12 12 13 13 14 15 16 16 17 18 19 19 20 20 20 20 20 20 19 18 17
19 19 20 21 22 22 22 22 23 20 15 12 14 15 13 12 12 13 12 12 11 11 12 12 13 14 15 14 14 15 15 14 12 11 11 11 11 12 11 11 11 11 11 11 11 11 11 12 13 14 15 15 16 15 14 14 14 14 15 15 14 13 12 12 13 13 12 12 13 13 14 15 16 16 17 18 19 19 19 20 20 19 18 19 18 17 15
19 19 20 20 20 21 20 20 21 20 16 14 13 14 12 11 12 12 10 10 10 11 12 12 13 14 15 16 16 17 16 15 13 13 12 13 13 14 13 13 12 12 11 11 9 8 9 12 13 14 14 14 13 12 12 13 13 14 15 15 14 13 13 13 13 12 12 13 13 14 14 15 16 17 18 19 19 19 19 19 19 18 19 19 19 18 16
17 18 19 19 19 19 19 18 17 18 16 17 17 14 13 12 12 11 9 8 9 10 10 11 12 13 15 17 18 19 17 16 14 14 15 14 14 14 14 13 13 13 12 11 10 9 10 12 13 13 14 14 13 13 13 14 14 14 15 15 15 14 13 13 13 13 13 14 15 15 16 18 19 19 20 20 19 19 18 18 19 19 20 20 19 17 15
17 16 17 17 16 15 16 16 15 15 18 21 19 15 12 12 12 11 10 9 8 8 8 9 11 12 14 16 18 18 17 16 16 16 16 15 14 14 13 13 13 13 13 13 12 11 11 12 13 13 14 14 14 13 13 13 14 14 14 14 14 14 14 14 14 15 15 16 17 17 17 18 19 19 18 17 17 16 17 17 18 18 19 18 16 15 14
16 14 14 14 14 14 16 17 15 15 20 21 16 11 10 11 11 11 11 10 9 7 6 7 9 11 13 15 16 16 15 15 15 16 17 17 16 15 14 13 14 14 15 15 14 13 13 13 13 13 12 13 13 12 12 13 14 14 13 13 13 14 15 16 17 17 18 19 18 15 14 15 16 16 14 12 12 13 14 15 16 16 16 16 14 13 13
13 11 10 10 10 10 12 15 15 16 20 20 14 9 7 9 8 8 10 10 10 9 8 7 7 8 10 11 12 12 12 13 15 16 18 18 18 18 16 15 15 15 16 16 16 15 15 14 14 14 14 14 14 13 13 14 15 15 15 15 16 17 18 18 18 18 18 17 15 12 12 13 13 12 11 11 11 12 12 13 14 14 14 14 13 12 12
12 10 9 9 10 10 11 12 12 13 15 14 9 6 6 7 7 9 10 10 9 10 10 8 7 7 8 8 9 9 10 12 15 16 17 17 18 18 18 17 16 16 16 16 16 16 16 16 16 16 15 15 15 16 16 17 18 18 18 18 18 19 18 17 15 14 14 13 11 10 10 10 9 9 10 10 10 10 11 12 12 12 11 11 11 10 9
12 10 10 11 12 11 10 9 8 8 8 5 2 0 3 6 8 10 11 10 9 9 10 8 6 6 7 7 7 7 8 10 12 13 14 15 16 16 17 17 17 17 17 16 15 15 16 16 16 16 16 16 16 17 17 17 18 18 17 17 16 16 14 13 12 11 11 10 10 9 9 8 7 7 7 7 8 8 9 9 9 9 8 8 8 7 6
10 11 10 10 10 8 7 5 5 7 7 5 5 5 4 5 6 7 8 8 8 9 9 8 7 7 7 7 7 6 6 6 7 9 12 13 14 14 15 15 15 16 16 16 16 16 16 16 16 16 16 16 16 15 15 15 15 14 13 13 12 11 10 10 9 9 9 9 8 9 9 9 8 8 8 8 8 8 9 8 8 8 8 7 7 6 6
13 12 9 10 10 9 8 7 6 7 6 5 6 4 2 2 1 3 4 5 6 7 6 5 4 5 6 6 5 5 5 5 5 6 7 9 12 13 14 13 12 13 13 14 16 17 18 17 17 16 15 14 13 12 12 12 11 10 9 9 9 8 8 8 8 8 8 9 9 10 11 11 11 11 11 10 10 10 10 10 9 9 8 8 7 6 6
13 13 12 11 10 9 9 7 6 7 5 3 3 4 6 7 7 6 6 5 5 5 4 3 2 3 4 4 4 5 6 7 6 5 4 5 8 10 12 12 11 10 10 11 13 15 16 16 15 13 12 11 10 9 8 8 8 8 8 8 8 8 8 8 8 9 9 10 10 11 11 11 11 12 12 12 12 11 11 11 10 9 8 7 7 6 7
15 14 13 11 10 10 8 4 2 2 4 8 10 10 9 10 10 10 9 8 9 9 7 6 5 4 2 2 3 4 5 6 6 5 4 4 5 7 9 10 10 9 8 8 9 10 11 11 10 10 9 9 8 8 7 8 8 8 8 8 9 9 9 10 10 10 10 10 10 10 10 11 11 11 12 12 12 11 10 10 9 8 7 7 6 6 6
15 13 12 10 9 8 5 2 2 5 10 13 13 12 11 11 11 10 8 8 8 8 7 6 6 6 5 2 1 1 2 4 5 4 4 5 5 6 7 8 9 9 9 8 8 8 8 8 9 9 9 9 8 8 9 9 9 9 9 9 10 10 11 11 11 10 10 10 10 10 10 10 10 10 10 10 10 10 9 8 8 7 6 6 6 5 5
15 14 13 11 9 6 3 2 3 9 14 15 15 13 12 11 11 9 8 7 6 5 4 3 3 4 4 4 4 4 3 1 2 3 4 5 5 6 6 7 7 8 8 9 9 9 9 9 9 10 10 9 9 10 10 10 10 10 10 10 11 11 11 10 10 9 9 10 9 9 9 9 9 9 8 8 8 7 7 6 5 5 4 4 4 4 4
Wind_Direction
9 30 4 288 288 263 218 218 223 224 221 220 223 230 240 247 256 274 286 292 295 297 297 294 295 294 293 302 289 232 223 222 213 212 216 214 209 207 206 206 213 217 216 217 218 216 215 215 216 215 214 216 219 216 211 209 209 208 209 210 212 214 218 223 225 226 227 228 228 228 229 229 228 228 230 231 232 232 229 227 225 224 223 225 227 231 235
22 25 342 245 239 241 226 227 229 227 229 231 236 243 242 242 255 274 286 288 290 296 300 298 296 291 286 290 276 219 205 210 213 211 211 209 206 206 207 209 214 218 219 218 217 217 216 215 216 215 214 217 219 214 209 209 208 208 209 212 214 216 220 223 225 226 228 228 228 227 227 226 225 226 230 232 233 231 228 226 226 227 228 230 231 234 238
6 11 347 292 239 232 235 246 244 234 233 237 243 246 241 242 256 273 283 281 287 302 307 299 294 288 281 269 245 216 196 198 207 209 209 209 209 211 213 215 217 219 219 218 217 218 218 216 216 213 212 215 216 212 210 208 207 207 210 213 215 217 221 224 225 227 229 228 227 227 227 225 223 226 230 234 235 232 228 226 227 229 232 234 234 236 239
344 357 349 340 293 228 250 250 243 238 234 236 241 242 237 244 257 269 276 278 291 312 310 297 296 288 274 252 229 219 203 199 203 209 214 214 213 215 217 218 220 220 218 217 217 217 217 216 215 213 214 216 214 211 210 207 205 207 211 215 216 218 222 225 226 229 230 229 227 227 227 223 221 225 231 235 237 235 231 228 229 232 235 236 236 236 239
336 349 348 347 350 257 274 230 226 235 237 239 242 240 239 248 259 266 269 275 294 308 295 299 305 288 260 248 239 232 220 209 205 209 216 217 217 219 219 219 220 220 218 215 215 217 218 216 215 215 217 217 215 211 207 204 204 207 213 218 219 220 223 225 228 231 231 228 226 227 226 222 221 224 229 235 238 237 234 231 231 235 237 237 237 238 242
330 343 347 349 19 161 234 160 198 237 239 245 248 243 245 255 262 268 271 273 280 288 292 303 305 286 249 282 270 244 237 222 212 209 212 216 217 217 215 214 214 214 214 215 216 219 219 216 216 217 218 218 218 214 209 205 205 210 216 221 222 222 224 226 230 232 230 228 225 226 225 222 220 222 227 233 236 236 235 233 233 237 239 240 240 241 245
327 339 352 5 3 293 302 314 285 245 230 245 245 238 244 260 268 274 278 274 266 274 293 304 306 261 94 32 5 282 238 231 220 214 211 211 210 208 206 209 211 211 213 216 218 217 214 213 214 215 216 218 218 215 212 209 209 212 218 223 225 226 227 230 231 231 229 227 224 224 224 221 218 220 225 229 232 233 234 234 234 237 239 241 243 245 249
328 337 354 356 313 316 334 269 235 225 191 237 240 238 248 263 268 274 281 276 262 268 286 286 241 116 349 340 5 25 38 51 237 226 212 206 208 212 212 214 215 212 211 214 215 213 210 212 213 213 215 218 218 216 215 213 213 216 219 224 227 229 231 233 233 229 227 225 223 222 222 219 216 218 222 226 229 230 232 233 234 236 239 243 247 250 254
331 331 329 325 325 349 54 48 336 243 304 2 277 247 248 255 265 271 273 257 245 253 275 270 246 313 308 300 356 14 343 347 26 314 208 199 214 223 221 217 216 215 214 215 216 215 215 214 214 215 218 219 218 217 217 215 215 216 219 223 227 229 232 233 231 226 223 223 223 222 221 218 215 216 221 224 226 229 231 233 235 237 240 244 247 251 255
330 330 326 331 334 359 49 16 356 315 302 350 353 258 239 233 250 254 235 215 224 235 252 257 261 293 301 291 279 327 317 305 262 233 59 147 211 217 215 212 211 211 215 217 217 215 215 215 216 218 220 218 216 217 217 215 214 216 219 222 225 228 231 230 225 221 220 221 222 223 222 218 214 215 220 223 225 228 230 231 234 236 238 243 246 250 256
327 332 324 306 279 280 335 348 340 325 317 340 360 259 235 223 237 241 228 215 221 231 236 241 253 269 274 274 287 323 309 292 263 238 228 206 196 199 202 205 204 203 208 213 214 215 216 218 221 222 220 216 215 216 216 215 215 217 219 221 224 226 226 223 220 217 218 220 222 224 223 220 217 216 218 221 223 225 227 230 232 234 238 243 247 251 257
330 328 310 279 275 297 323 328 324 326 331 347 273 242 221 223 239 241 234 226 226 236 243 245 249 254 259 269 292 314 303 293 273 236 228 232 218 204 203 205 206 207 209 210 213 216 219 220 222 222 220 217 215 215 216 216 217 218 219 220 222 222 220 216 214 215 217 218 220 223 224 222 221 218 217 219 221 223 226 230 233 236 241 247 251 254 259
334 325 307 296 297 306 319 323 323 326 336 10 240 253 261 271 269 269 268 247 229 234 243 248 252 256 265 274 281 284 279 287 284 236 224 235 240 231 220 212 209 210 211 212 214 216 217 218 218 217 217 216 215 215 214 215 216 216 217 218 218 217 215 213 212 216 219 218 220 226 227 223 221 219 218 220 223 225 229 232 235 240 246 252 256 257 258
341 328 310 307 321 331 328 322 322 330 346 345 291 274 277 278 275 285 294 292 277 252 245 248 251 254 261 266 267 266 261 263 264 244 232 238 245 247 242 226 215 213 214 216 217 216 215 215 214 212 212 213 214 214 212 213 214 215 216 216 214 212 213 212 211 214 216 216 220 227 228 223 221 220 219 222 226 229 233 236 240 246 252 257 261 261 262
343 331 324 324 333 337 333 322 319 340 349 334 313 291 278 276 283 298 297 293 295 282 263 259 258 257 261 264 260 255 251 250 249 242 239 242 246 251 252 243 229 220 217 217 217 216 215 215 213 212 213 214 214 214 213 214 216 217 216 213 209 208 210 210 208 209 213 218 223 227 226 223 221 219 220 224 229 233 237 242 247 253 257 262 266 266 265
340 325 332 341 337 340 342 331 319 326 334 324 307 293 290 287 289 301 298 288 287 285 276 269 263 260 263 265 261 257 255 256 255 250 247 248 246 246 249 248 242 229 220 216 216 216 216 216 215 213 214 215 216 216 216 217 217 216 213 209 206 206 206 204 204 211 219 223 223 223 222 222 221 220 223 228 233 238 244 248 252 255 257 260 264 263 260
341 326 332 345 345 344 344 334 320 317 318 313 301 292 297 294 289 300 301 287 280 281 280 273 264 259 258 261 263 263 263 266 267 266 268 268 265 257 241 234 236 235 225 217 216 217 216 216 215 213 213 216 219 219 218 218 216 213 210 206 205 204 201 199 205 214 220 220 218 216 218 220 222 225 230 234 238 241 243 245 248 253 255 256 256 255 255
345 339 342 351 350 346 343 336 327 317 312 309 301 296 312 306 300 309 307 292 282 278 277 273 265 258 257 260 262 262 263 268 270 271 275 278 282 285 266 237 227 229 227 222 220 220 219 217 215 215 215 217 220 221 221 217 212 209 207 202 199 198 198 204 214 221 221 217 214 212 215 219 222 226 230 232 234 236 236 238 243 249 252 253 256 263 269
346 346 352 351 348 352 355 346 334 321 312 320 322 323 336 324 317 322 310 290 280 273 269 267 263 259 259 262 263 262 264 269 270 272 278 281 284 291 289 264 234 223 223 224 222 223 224 222 219 216 214 212 215 221 220 213 207 206 204 199 196 198 201 208 217 223 221 215 212 211 214 218 221 223 225 226 226 226 225 229 236 245 254 259 264 273 277
344 351 359 354 349 356 360 349 342 338 328 340 357 3 357 329 319 326 315 286 268 257 250 247 249 258 265 266 265 264 265 269 273 276 281 284 285 288 294 287 257 231 223 223 222 222 223 223 222 219 211 205 208 215 212 204 201 202 200 196 195 198 202 206 211 213 211 207 207 209 212 216 220 223 223 220 218 216 217 225 234 243 255 262 259 258 265
339 353 1 355 349 356 0 348 344 349 347 338 357 16 7 333 308 327 341 331 296 249 232 226 228 244 259 266 271 270 266 269 276 277 278 282 286 287 291 291 275 246 229 225 224 223 223 226 226 220 209 204 204 201 193 190 190 187 184 183 183 187 196 204 205 203 201 202 204 205 207 211 214 215 213 208 206 210 216 225 234 241 250 258 255 248 250
329 342 354 351 342 343 351 347 342 345 346 340 348 7 7 360 343 353 12 14 3 328 212 189 196 231 253 263 267 269 270 269 269 272 277 281 284 287 288 284 275 258 240 233 231 229 228 229 225 213 204 201 193 181 177 180 181 177 175 176 178 184 195 201 200 198 199 201 203 203 204 205 206 207 207 205 207 215 221 226 234 241 248 253 254 254 256
320 331 346 345 334 333 342 344 339 338 338 334 334 1 11 13 13 23 34 29 23 35 58 64 69 241 255 262 263 263 265 264 264 269 276 280 283 286 285 274 263 257 246 235 231 228 226 225 217 203 194 186 176 170 170 173 174 173 175 180 184 188 194 197 196 197 199 201 202 204 204 206 207 208 209 210 213 218 223 227 234 241 246 250 253 257 261
318 329 339 335 328 328 335 337 334 333 333 331 327 337 5 11 17 30 30 20 23 41 53 54 54 53 292 281 275 263 255 257 262 266 269 270 276 280 271 255 251 253 242 227 229 227 221 216 203 190 184 178 170 166 165 167 168 169 172 178 182 186 191 194 195 197 199 202 204 206 207 209 209 209 212 215 218 220 224 230 236 242 246 250 253 255 256
317 327 333 327 322 324 329 330 329 328 330 330 318 292 282 350 6 28 30 21 27 42 46 49 55 53 47 33 7 336 289 266 248 233 229 218 203 254 246 227 220 219 202 199 212 206 195 189 184 179 178 174 167 164 166 169 170 170 173 179 182 185 190 194 195 199 205 209 212 213 212 212 210 211 213 216 217 220 225 232 240 247 252 254 255 256 256
316 326 329 322 321 327 327 326 326 323 322 324 312 286 273 305 332 31 42 31 34 44 45 47 50 48 50 49 42 41 41 42 189 180 154 114 98 67 260 218 190 173 168 170 175 173 168 167 171 174 174 172 170 170 172 174 174 175 179 183 186 187 191 196 201 206 210 212 215 219 220 220 219 219 220 224 228 232 237 242 248 253 255 255 254 254 255
315 325 327 321 321 327 324 322 326 322 314 313 311 297 288 289 287 346 39 31 29 40 48 53 52 52 60 62 57 56 55 61 126 156 129 99 87 66 28 191 168 155 152 150 154 161 165 167 172 176 178 178 179 179 178 178 179 181 183 187 191 194 199 204 209 214 218 222 226 229 230 232 233 229 226 231 243 251 254 256 258 257 254 253 253 254 256
304 311 318 315 314 316 316 318 326 323 314 313 316 309 298 290 284 302 31 39 34 36 44 55 59 59 64 65 63 61 58 60 77 97 90 84 83 87 113 138 139 136 137 137 141 150 156 162 170 174 178 182 183 183 184 185 186 188 190 194 199 205 211 216 220 224 228 231 232 233 236 239 240 236 227 227 238 248 254 258 260 257 253 251 252 254 257
292 295 304 307 307 309 312 318 323 320 315 315 313 305 299 294 283 281 292 83 64 39 37 52 65 69 71 69 66 64 64 68 73 74 72 75 78 85 102 116 119 121 129 140 146 142 135 139 155 165 173 182 185 184 185 186 185 190 197 201 205 212 219 224 226 228 230 229 229 233 238 239 239 238 235 232 236 244 250 254 256 254 250 250 253 253 253
282 285 292 299 303 306 312 320 323 319 313 308 302 294 288 280 273 270 260 225 197 321 15 54 78 80 79 82 89 94 96 99 102 107 117 123 106 95 105 122 130 134 145 160 163 153 139 140 162 179 185 191 192 186 184 188 193 202 208 211 215 218 220 224 226 226 227 228 228 232 237 239 240 242 243 240 238 240 243 246 248 248 248 251 254 253 252
282 282 286 291 298 307 315 320 322 320 311 299 289 283 279 270 268 272 266 239 222 230 241 229 167 120 99 96 108 118 124 135 141 140 144 146 136 130 133 137 139 144 154 165 171 168 161 163 181 200 206 207 212 217 218 222 227 230 232 234 234 232 229 227 224 220 221 225 228 232 237 241 244 246 246 243 239 239 240 241 243 244 247 252 254 254 254
278 278 282 286 292 303 312 315 317 316 310 298 284 275 271 266 262 262 258 241 223 223 231 236 230 202 166 148 144 138 139 149 155 155 155 155 152 153 157 156 154 160 166 169 173 176 173 173 188 207 214 215 217 219 219 224 228 230 232 235 235 232 229 226 223 222 225 229 234 238 242 243 244 244 242 239 237 238 239 241 243 246 249 252 254 256 257
282 282 284 283 285 291 301 308 310 308 306 301 288 274 266 261 256 251 249 245 235 226 225 231 237 234 224 214 206 194 183 177 174 171 170 171 169 169 173 175 174 174 178 179 180 181 179 178 189 205 211 212 213 214 217 223 226 226 228 231 229 227 227 227 228 230 231 233 235 238 239 239 239 238 236 235 235 238 242 245 248 250 253 255 257 258 260
288 287 290 291 288 285 288 298 303 303 303 302 294 281 267 258 254 251 251 251 244 223 209 214 228 235 237 239 240 237 227 214 204 199 194 191 190 188 187 187 184 182 185 189 190 188 186 187 192 202 207 209 212 216 221 225 225 224 224 227 228 228 228 229 231 232 232 231 231 232 232 233 235 236 236 238 241 244 248 250 252 254 256 257 259 260 260
283 280 283 287 286 279 277 284 292 297 299 297 292 285 273 262 256 255 254 249 232 201 191 209 224 228 230 233 231 227 225 223 219 213 205 200 199 196 195 194 192 189 190 192 192 193 194 197 200 203 205 207 210 215 218 219 219 221 222 227 233 237 235 232 231 231 229 228 228 230 233 237 239 242 246 248 250 252 253 254 254 255 255 256 257 258 259
278 277 276 279 280 280 279 280 282 288 295 296 292 287 278 268 259 258 258 248 212 179 189 213 223 226 229 229 224 220 219 220 217 208 203 204 205 204 204 202 199 195 193 192 192 193 196 199 203 205 207 209 211 214 216 215 216 220 225 230 234 237 236 230 226 225 225 226 229 232 237 241 245 248 250 252 252 253 254 253 252 252 252 253 254 256 258
272 275 276 274 275 278 281 281 279 276 280 288 288 282 274 267 261 258 257 247 200 188 213 225 229 234 233 228 225 225 223 219 213 206 207 210 207 206 211 211 205 201 200 198 198 199 198 199 204 207 208 210 211 212 213 214 216 219 223 224 225 226 226 224 222 224 227 230 233 236 241 245 248 251 253 255 256 256 255 254 253 251 251 252 253 255 258
273 275 277 273 272 275 277 281 281 276 271 276 280 274 266 264 262 255 245 233 218 221 229 231 233 238 237 230 227 229 228 222 212 206 209 210 202 197 204 209 206 204 202 204 212 211 201 195 201 208 209 209 209 208 209 211 213 214 217 217 218 221 225 228 232 237 239 240 241 244 246 247 249 251 253 254 255 255 255 255 254 252 253 255 258 260 263
274 274 276 275 274 276 278 281 283 278 265 257 266 269 262 252 245 236 228 227 229 235 240 237 232 232 233 233 232 231 230 225 215 204 202 203 200 201 207 212 212 208 202 204 214 214 197 190 202 215 218 216 210 205 208 213 215 216 221 222 221 222 228 234 240 243 245 247 249 249 248 250 252 254 254 254 253 254 254 254 254 254 256 259 263 265 267
273 273 276 277 277 278 277 278 282 278 258 236 243 257 255 241 235 233 234 240 247 248 247 241 233 227 228 230 231 230 230 228 222 214 211 209 207 209 213 216 218 218 212 208 210 206 193 195 206 216 222 221 210 200 205 215 219 222 227 229 226 225 228 232 236 241 246 251 253 254 255 259 262 261 258 255 253 253 253 253 253 254 256 259 263 266 267
275 276 279 279 278 276 271 271 280 280 255 225 220 228 228 223 227 233 237 245 253 254 250 242 233 226 224 226 228 229 229 227 224 222 222 220 217 216 217 219 221 220 217 216 216 209 202 205 212 219 227 230 222 209 208 215 219 222 226 226 225 225 228 230 233 239 247 253 256 258 260 263 262 260 257 256 256 255 253 251 250 250 252 256 260 264 267
281 280 281 280 279 274 268 267 277 275 249 227 217 214 209 209 220 230 235 241 252 258 254 246 237 230 227 229 232 233 231 228 226 226 228 227 224 221 219 219 220 220 218 219 221 219 215 215 219 223 229 231 224 214 212 217 221 223 223 222 223 229 235 238 241 248 255 261 264 262 260 257 256 255 254 254 253 252 249 247 247 249 251 255 259 263 266
283 282 281 279 276 271 267 268 270 260 239 224 212 203 211 226 237 240 240 247 259 265 257 245 239 236 235 235 236 235 231 225 222 223 227 228 227 224 218 213 212 216 218 218 218 220 223 224 226 228 232 233 229 223 220 222 226 230 233 235 236 238 241 245 251 258 264 266 265 259 250 248 252 255 256 255 253 251 248 246 247 249 252 255 258 261 262
283 277 271 267 263 260 262 266 263 245 226 211 192 182 214 245 258 255 249 254 265 269 261 246 234 233 235 238 240 237 227 215 211 214 218 222 224 224 222 216 212 214 216 215 213 215 219 223 227 230 233 235 237 235 230 228 233 239 243 245 244 243 245 249 254 258 260 260 257 248 239 240 248 255 258 259 258 255 251 249 250 251 253 254 256 258 260
282 265 243 231 231 236 242 243 232 213 200 191 175 172 209 243 262 266 264 262 260 256 252 244 231 223 226 232 238 232 219 211 210 211 212 214 216 219 220 218 215 215 215 214 215 217 220 221 224 228 230 232 235 235 233 235 239 241 242 244 246 248 251 253 254 253 252 252 250 248 245 245 248 251 253 251 248 244 242 243 246 247 247 249 252 255 258
273 253 227 213 215 220 221 213 190 158 139 125 92 318 250 257 262 261 260 262 257 248 243 238 227 212 205 210 218 217 210 209 213 214 215 216 216 218 219 220 220 220 219 217 217 219 220 220 221 225 228 230 233 235 236 238 240 241 242 245 247 247 248 249 247 247 248 251 251 252 253 255 255 254 251 246 240 238 237 238 241 244 247 250 254 257 259
248 235 215 190 174 159 149 140 105 75 62 30 344 322 300 287 280 268 257 255 255 249 240 230 214 199 192 196 204 205 195 192 201 212 218 221 222 222 222 222 221 221 220 216 214 216 220 223 228 232 235 237 240 243 245 244 243 242 243 244 243 240 239 240 239 241 246 250 249 251 255 259 260 258 257 254 252 252 253 254 254 255 256 256 257 259 264
215 206 183 149 124 103 89 74 39 16 358 325 304 292 242 180 205 240 234 230 233 235 233 223 200 190 190 192 195 196 194 193 199 208 214 217 218 219 219 218 218 219 221 220 220 222 225 230 234 239 243 246 248 248 245 242 240 239 238 238 238 237 236 237 240 245 251 253 252 253 256 260 262 263 263 263 262 262 264 264 262 258 255 253 254 257 263
172 156 134 116 98 77 65 47 5 332 307 255 205 180 165 158 155 157 161 159 161 169 173 159 145 168 195 207 209 204 202 204 206 206 204 209 213 213 211 210 213 218 222 224 222 222 224 228 232 235 238 240 242 239 234 230 230 232 233 235 237 238 239 244 253 261 264 264 263 263 263 263 263 263 263 263 263 262 261 259 255 250 248 249 250 251 253
149 134 123 114 104 98 94 78 322 273 186 166 162 159 156 157 158 154 141 126 120 121 121 112 97 93 110 206 234 226 208 203 205 209 210 203 195 191 192 196 199 201 204 209 211 210 212 217 221 223 224 226 228 229 229 228 229 231 233 235 239 245 252 260 267 270 271 270 270 269 267 264 260 258 258 260 260 258 254 248 244 242 242 244 246 246 246
151 141 140 139 133 129 136 194 210 149 144 153 161 161 157 159 164 159 141 121 108 99 95 92 85 78 76 69 360 317 221 199 197 194 191 184 171 163 170 182 189 190 193 198 203 206 210 213 216 219 222 225 228 231 234 235 237 239 243 248 254 261 267 271 273 274 274 274 273 271 269 265 260 257 256 254 251 246 241 237 235 235 234 236 242 248 251
157 156 159 160 160 162 195 233 163 136 138 150 161 166 170 175 175 163 143 127 120 114 108 91 55 44 50 47 22 3 347 259 200 176 170 173 171 168 172 183 190 194 197 199 200 203 207 212 217 221 224 227 232 236 240 243 247 252 256 260 263 265 267 268 270 271 272 273 272 268 263 260 257 252 245 237 231 226 222 221 223 225 228 236 252 268 275
Height
3000 2999 2999 2999 3000 3000 3001 3002 3003 3005 3006 3007 3008 3009 3010 3012 3011 3005 3003 3005 3002 2998 2999 2999 2998 2997 2995 2995 2994 2991 2990 2990 2991 2993 2996 3000 3005 3011 3016 3021 3025 3027 3031 3035 3038 3042 3047 3051 3054 3057 3060 3063 3065 3068 3070 3073 3075 3078 3081 3083 3085 3087 3089 3092 3094 3096 3097 3099 3100 3102 3104 3106 3108 3110 3111 3111 3112 3112 3113 3114 3116 3117 3118 3120 3121 3123 3124
3000 3000 2999 2999 2999 2999 2999 3000 3001 3002 3004 3005 3006 3007 3009 3009 3007 3004 3003 3003 3002 3000 2999 2997 2996 2995 2994 2994 2993 2991 2990 2992 2993 2995 2997 3001 3005 3010 3015 3019 3023 3025 3028 3032 3036 3040 3044 3048 3051 3054 3057 3060 3062 3064 3067 3069 3072 3075 3078 3080 3082 3085 3087 3089 3092 3093 3094 3096 3097 3099 3101 3103 3106 3107 3108 3109 3109 3110 3111 3112 3114 3115 3116 3118 3119 3121 3122
3001 3000 2998 2998 2998 2997 2998 2999 3000 3001 3002 3003 3003 3004 3007 3007 3005 3002 3002 3001 2999 2999 2999 2996 2994 2992 2992 2992 2992 2991 2990 2992 2994 2997 3000 3003 3006 3010 3014 3017 3021 3023 3026 3030 3034 3037 3041 3045 3049 3052 3055 3057 3060 3062 3064 3067 3070 3072 3075 3077 3080 3082 3084 3086 3089 3090 3091 3093 3095 3097 3099 3101 3103 3105 3106 3107 3107 3108 3109 3111 3112 3113 3114 3116 3117 3119 3120
2999 2998 2997 2996 2996 2996 2997 2998 2999 3000 3000 3000 3001 3003 3005 3005 3003 3002 3001 2999 2997 2997 2997 2996 2994 2992 2990 2990 2989 2989 2990 2992 2993 2995 3000 3003 3005 3008 3011 3015 3018 3020 3024 3028 3032 3035 3039 3043 3047 3050 3052 3055 3057 3059 3062 3065 3067 3070 3072 3075 3077 3079 3081 3084 3086 3087 3089 3090 3092 3094 3096 3099 3100 3102 3103 3104 3105 3106 3108 3109 3110 3111 3112 3114 3115 3116 3117
2997 2997 2996 2993 2994 2995 2996 2996 2998 2999 2999 2999 3000 3001 3003 3003 3003 3003 3002 3000 2998 2998 2997 2995 2993 2991 2989 2988 2988 2989 2989 2991 2991 2993 2998 3001 3003 3006 3009 3012 3015 3019 3022 3026 3030 3034 3038 3041 3044 3048 3050 3052 3055 3057 3060 3063 3065 3068 3070 3072 3074 3076 3079 3081 3082 3084 3086 3088 3090 3092 3094 3096 3098 3099 3101 3102 3103 3104 3106 3107 3108 3109 3110 3112 3113 3114 3115
2997 2997 2995 2992 2993 2995 2995 2995 2996 2996 2997 2997 2998 2999 3000 3001 3002 3001 3000 3000 2999 2998 2997 2994 2991 2989 2987 2987 2988 2990 2989 2989 2990 2991 2995 2998 3001 3003 3007 3011 3015 3018 3022 3026 3029 3033 3036 3040 3043 3045 3048 3050 3053 3056 3058 3060 3063 3065 3067 3069 3071 3074 3076 3078 3079 3081 3083 3085 3087 3089 3091 3093 3095 3097 3099 3100 3101 3102 3103 3105 3106 3107 3108 3109 3110 3111 3113
2998 2997 2996 2995 2995 2994 2993 2993 2993 2993 2993 2993 2994 2995 2997 2998 2999 2999 2997 2998 2998 2997 2996 2993 2989 2988 2989 2988 2989 2991 2991 2990 2990 2991 2992 2995 2998 3001 3005 3009 3014 3018 3021 3024 3027 3031 3034 3037 3040 3042 3045 3048 3050 3052 3054 3057 3060 3062 3064 3066 3068 3071 3073 3074 3076 3079 3080 3083 3085 3087 3089 3091 3093 3095 3096 3098 3099 3100 3101 3103 3104 3105 3106 3106 3108 3109 3110
2999 2997 2998 2999 2997 2993 2991 2991 2992 2992 2992 2991 2992 2993 2995 2996 2996 2995 2994 2995 2997 2997 2996 2995 2992 2991 2992 2991 2990 2991 2991 2991 2993 2992 2990 2993 2998 3002 3005 3009 3013 3016 3020 3023 3026 3029 3032 3034 3037 3039 3042 3044 3046 3049 3051 3054 3057 3059 3061 3063 3065 3068 3069 3071 3074 3076 3078 3080 3082 3084 3086 3088 3090 3092 3094 3095 3097 3098 3099 3100 3101 3102 3103 3104 3105 3106 3107
3000 2999 2998 2997 2995 2992 2991 2991 2992 2992 2992 2992 2992 2993 2994 2995 2994 2993 2993 2994 2996 2998 2997 2996 2995 2994 2993 2991 2990 2991 2992 2993 2994 2993 2991 2994 2998 3001 3003 3007 3012 3016 3020 3023 3025 3027 3029 3031 3034 3037 3039 3041 3043 3046 3048 3051 3053 3055 3057 3060 3062 3064 3066 3068 3071 3073 3075 3077 3079 3081 3083 3085 3087 3089 3091 3093 3094 3095 3096 3097 3098 3099 3100 3101 3102 3103 3104
3001 3000 2998 2996 2995 2994 2993 2993 2993 2993 2992 2991 2992 2993 2993 2993 2993 2993 2993 2993 2994 2996 2997 2997 2996 2995 2993 2991 2989 2991 2993 2994 2995 2994 2994 2996 2998 2999 3002 3007 3011 3015 3018 3020 3023 3025 3027 3029 3032 3034 3036 3038 3040 3042 3044 3047 3049 3051 3054 3056 3059 3061 3063 3066 3068 3070 3072 3074 3076 3079 3080 3083 3085 3087 3088 3090 3091 3093 3094 3095 3096 3097 3097 3098 3099 3100 3101
3001 3000 2998 2998 2996 2994 2994 2994 2993 2993 2991 2990 2990 2991 2991 2991 2992 2992 2992 2992 2992 2993 2995 2995 2995 2995 2993 2990 2988 2990 2993 2995 2995 2995 2995 2998 2999 3001 3004 3007 3010 3012 3015 3017 3020 3022 3023 3026 3028 3030 3032 3034 3036 3039 3041 3043 3045 3048 3051 3054 3056 3058 3060 3063 3065 3067 3069 3072 3074 3076 3078 3080 3083 3084 3085 3087 3088 3090 3091 3092 3092 3093 3094 3095 3096 3098 3099
3000 2998 2997 2996 2995 2993 2993 2993 2992 2992 2991 2990 2990 2990 2989 2989 2990 2990 2991 2991 2991 2991 2992 2993 2993 2993 2990 2987 2988 2992 2993 2994 2994 2994 2995 2997 2999 3001 3003 3005 3008 3010 3012 3013 3015 3017 3020 3022 3024 3027 3029 3030 3032 3035 3037 3039 3042 3045 3048 3051 3053 3055 3058 3060 3062 3064 3066 3069 3071 3073 3075 3078 3080 3081 3082 3084 3085 3086 3087 3088 3089 3090 3091 3092 3094 3095 3096
2999 2997 2995 2993 2992 2992 2993 2992 2991 2990 2990 2989 2989 2988 2987 2986 2987 2988 2989 2988 2988 2989 2990 2991 2991 2990 2988 2986 2988 2991 2992 2992 2993 2994 2995 2996 2998 2999 3001 3003 3005 3007 3008 3010 3012 3014 3017 3019 3021 3023 3025 3027 3029 3032 3034 3037 3040 3043 3046 3048 3050 3052 3055 3057 3059 3061 3064 3066 3068 3071 3073 3075 3076 3077 3079 3081 3082 3084 3085 3085 3086 3087 3088 3089 3090 3092 3092
2999 2997 2995 2992 2990 2991 2991 2991 2990 2989 2989 2988 2987 2986 2985 2984 2984 2986 2987 2987 2987 2988 2989 2989 2988 2988 2987 2986 2987 2988 2989 2990 2992 2994 2995 2997 2998 2998 3000 3001 3003 3003 3004 3006 3009 3011 3014 3016 3018 3020 3022 3024 3026 3029 3031 3034 3037 3040 3043 3045 3047 3050 3052 3054 3056 3059 3062 3064 3066 3068 3070 3071 3072 3074 3076 3078 3080 3081 3082 3082 3083 3084 3085 3086 3087 3088 3089
3000 2998 2996 2994 2992 2990 2989 2988 2987 2987 2988 2988 2987 2985 2985 2983 2982 2983 2985 2986 2986 2987 2987 2987 2986 2986 2985 2985 2985 2986 2986 2987 2989 2991 2993 2995 2997 2998 2998 2999 3000 3001 3002 3003 3005 3008 3010 3012 3014 3017 3018 3021 3023 3026 3029 3032 3034 3037 3039 3042 3045 3047 3050 3052 3054 3057 3059 3062 3064 3066 3067 3068 3070 3071 3073 3075 3077 3078 3079 3080 3081 3082 3083 3083 3084 3085 3085
3002 3000 2998 2997 2994 2991 2988 2986 2986 2986 2987 2988 2987 2986 2985 2984 2983 2982 2982 2984 2985 2985 2985 2985 2984 2983 2982 2982 2982 2984 2985 2986 2987 2989 2990 2991 2993 2994 2995 2996 2997 2998 2999 3000 3002 3004 3006 3008 3010 3013 3015 3017 3020 3023 3026 3028 3031 3033 3036 3039 3042 3045 3047 3049 3052 3054 3057 3060 3062 3063 3065 3066 3067 3069 3071 3073 3074 3076 3077 3078 3079 3079 3080 3081 3081 3081 3082
3004 3002 3000 2997 2994 2991 2988 2986 2985 2984 2984 2985 2985 2985 2985 2984 2982 2980 2980 2981 2982 2983 2983 2983 2982 2980 2980 2980 2980 2982 2984 2985 2986 2987 2988 2989 2990 2991 2992 2992 2993 2995 2996 2997 2999 3001 3002 3004 3006 3009 3011 3014 3016 3019 3022 3024 3027 3030 3034 3037 3040 3042 3045 3047 3050 3052 3055 3058 3060 3061 3062 3063 3065 3067 3069 3071 3073 3074 3075 3076 3076 3077 3077 3078 3078 3078 3079
3003 3001 2999 2996 2994 2991 2989 2987 2985 2983 2982 2982 2983 2983 2983 2982 2981 2979 2979 2979 2980 2980 2981 2981 2980 2980 2979 2979 2980 2981 2982 2984 2984 2985 2986 2986 2987 2988 2989 2989 2990 2991 2993 2995 2996 2998 2999 3001 3003 3005 3008 3010 3013 3015 3017 3020 3024 3027 3031 3035 3038 3041 3044 3046 3048 3050 3053 3055 3057 3059 3060 3062 3064 3066 3067 3069 3070 3072 3072 3073 3073 3074 3074 3075 3075 3075 3076
3002 3000 2998 2996 2994 2991 2990 2988 2985 2983 2982 2982 2981 2981 2981 2981 2980 2979 2978 2978 2977 2978 2978 2978 2979 2979 2978 2979 2979 2980 2981 2982 2982 2983 2983 2983 2984 2986 2987 2988 2987 2987 2989 2991 2993 2994 2996 2997 2998 2999 3002 3005 3008 3011 3014 3017 3021 3025 3029 3033 3036 3040 3043 3045 3047 3049 3052 3054 3056 3057 3059 3060 3062 3064 3065 3066 3068 3069 3070 3070 3071 3071 3072 3072 3072 3072 3073
3003 3001 2998 2996 2995 2992 2990 2988 2985 2983 2982 2982 2981 2979 2979 2980 2980 2978 2978 2977 2976 2975 2975 2976 2977 2977 2977 2978 2979 2980 2980 2980 2980 2981 2981 2981 2982 2983 2985 2986 2986 2985 2986 2986 2987 2989 2990 2991 2992 2995 2998 3002 3005 3008 3011 3015 3019 3023 3027 3031 3034 3038 3042 3045 3046 3048 3051 3053 3054 3056 3057 3058 3060 3062 3063 3064 3065 3066 3067 3068 3068 3069 3069 3069 3069 3070 3071
3002 3000 2998 2996 2994 2993 2991 2990 2987 2984 2982 2981 2980 2979 2978 2980 2980 2979 2978 2976 2974 2973 2973 2973 2974 2976 2976 2978 2979 2979 2980 2980 2980 2980 2980 2980 2981 2981 2982 2982 2982 2982 2983 2983 2984 2987 2989 2991 2994 2997 3000 3002 3004 3007 3010 3014 3018 3022 3026 3029 3033 3037 3041 3043 3045 3047 3049 3051 3052 3053 3055 3056 3058 3059 3061 3062 3063 3064 3065 3065 3066 3066 3066 3067 3067 3067 3068
3000 2999 2999 2998 2996 2993 2992 2991 2988 2986 2984 2982 2981 2980 2979 2980 2980 2979 2977 2975 2974 2973 2973 2972 2973 2975 2976 2977 2978 2978 2979 2979 2979 2978 2978 2979 2980 2979 2979 2979 2979 2980 2982 2983 2986 2989 2991 2992 2995 2998 3000 3002 3004 3007 3010 3013 3017 3021 3024 3028 3031 3035 3038 3041 3043 3045 3047 3049 3050 3051 3053 3055 3056 3057 3059 3060 3061 3061 3062 3063 3063 3063 3064 3064 3064 3064 3064
3001 3000 2999 2999 2997 2995 2994 2992 2990 2988 2986 2984 2982 2981 2980 2980 2979 2977 2976 2976 2975 2974 2973 2972 2973 2974 2975 2975 2976 2977 2977 2977 2977 2977 2977 2978 2978 2978 2977 2977 2978 2980 2982 2984 2986 2988 2990 2992 2996 3000 3001 3002 3004 3007 3011 3014 3016 3019 3023 3026 3030 3033 3036 3039 3042 3044 3045 3047 3048 3050 3052 3053 3054 3055 3056 3057 3058 3059 3059 3060 3060 3061 3061 3061 3061 3061 3061
3001 3000 2999 2998 2997 2995 2994 2993 2991 2989 2987 2985 2984 2982 2981 2980 2979 2978 2977 2977 2976 2975 2974 2974 2975 2974 2974 2974 2974 2975 2975 2974 2975 2976 2976 2977 2977 2977 2977 2978 2978 2980 2983 2985 2986 2988 2991 2995 2999 3001 3002 3004 3006 3009 3012 3014 3016 3019 3022 3026 3029 3032 3035 3038 3040 3042 3044 3045 3047 3049 3050 3051 3052 3053 3054 3055 3056 3056 3056 3057 3057 3057 3058 3057 3057 3057 3057
3000 2999 2999 2997 2995 2994 2994 2993 2991 2990 2988 2987 2985 2984 2982 2981 2981 2981 2980 2978 2977 2976 2976 2977 2976 2974 2973 2973 2973 2973 2973 2973 2974 2975 2975 2975 2975 2976 2977 2979 2980 2981 2983 2984 2986 2989 2992 2996 2999 3001 3003 3006 3008 3010 3012 3014 3016 3019 3022 3025 3028 3031 3033 3036 3038 3040 3042 3044 3045 3047 3048 3049 3050 3051 3051 3052 3052 3053 3053 3053 3054 3054 3054 3054 3054 3054 3054
2999 2998 2997 2995 2994 2993 2993 2992 2991 2989 2988 2987 2986 2985 2983 2982 2983 2983 2981 2978 2977 2978 2978 2978 2976 2975 2974 2974 2974 2974 2974 2974 2975 2976 2976 2976 2976 2977 2979 2981 2982 2982 2983 2985 2987 2990 2993 2996 3000 3003 3005 3007 3009 3010 3012 3014 3016 3018 3021 3024 3027 3029 3032 3034 3036 3038 3040 3042 3043 3044 3045 3046 3047 3048 3048 3049 3049 3049 3050 3050 3051 3051 3051 3051 3051 3051 3051
2995 2995 2994 2993 2992 2992 2992 2991 2990 2988 2986 2986 2986 2985 2984 2984 2985 2984 2981 2979 2979 2980 2979 2979 2977 2976 2975 2975 2975 2975 2976 2976 2976 2977 2977 2978 2978 2979 2981 2982 2984 2984 2985 2986 2989 2993 2995 2997 3000 3003 3005 3007 3009 3011 3013 3014 3016 3018 3021 3023 3026 3029 3031 3033 3035 3037 3038 3040 3041 3042 3043 3043 3044 3044 3045 3046 3047 3047 3047 3047 3047 3048 3048 3047 3047 3047 3047
2992 2992 2992 2991 2990 2991 2991 2990 2990 2987 2985 2985 2986 2986 2985 2984 2984 2983 2982 2981 2981 2981 2980 2980 2979 2977 2976 2976 2975 2976 2976 2976 2977 2978 2979 2981 2982 2983 2983 2984 2985 2986 2986 2987 2990 2994 2997 2999 3002 3004 3006 3008 3010 3012 3014 3016 3017 3019 3021 3023 3026 3028 3030 3032 3034 3035 3036 3037 3038 3039 3040 3041 3041 3041 3041 3042 3043 3044 3044 3044 3044 3044 3044 3044 3044 3044 3044
2991 2990 2990 2989 2989 2989 2989 2989 2989 2987 2985 2984 2985 2985 2985 2984 2983 2982 2982 2982 2982 2981 2981 2981 2980 2979 2978 2977 2976 2976 2976 2976 2977 2979 2982 2984 2984 2985 2986 2986 2987 2988 2989 2991 2993 2995 2997 3001 3004 3007 3008 3009 3011 3013 3015 3016 3018 3020 3021 3023 3025 3027 3029 3031 3032 3033 3034 3035 3036 3037 3037 3038 3038 3038 3038 3039 3040 3040 3041 3041 3041 3041 3041 3041 3041 3041 3041
2989 2989 2988 2988 2987 2988 2988 2988 2987 2986 2985 2984 2983 2983 2983 2983 2982 2981 2982 2982 2982 2981 2981 2981 2981 2981 2980 2979 2978 2978 2978 2978 2978 2980 2983 2984 2985 2986 2988 2989 2989 2991 2992 2994 2996 2997 2999 3002 3006 3008 3009 3010 3011 3012 3014 3016 3017 3019 3021 3023 3024 3026 3027 3028 3029 3030 3031 3032 3033 3034 3034 3034 3035 3036 3036 3036 3037 3037 3037 3037 3038 3038 3038 3038 3037 3037 3037
2988 2987 2987 2986 2986 2986 2986 2986 2986 2985 2984 2983 2983 2982 2982 2982 2982 2981 2981 2982 2982 2981 2981 2980 2981 2982 2982 2981 2980 2980 2980 2981 2982 2982 2983 2984 2985 2986 2988 2989 2991 2993 2994 2996 2997 2999 3001 3003 3006 3008 3010 3011 3012 3013 3014 3016 3017 3019 3020 3022 3023 3024 3025 3026 3027 3028 3029 3029 3030 3031 3031 3032 3032 3033 3033 3033 3034 3034 3034 3034 3034 3035 3035 3035 3034 3034 3034
2986 2985 2985 2985 2984 2983 2984 2984 2984 2983 2983 2982 2981 2980 2980 2981 2981 2980 2980 2981 2981 2981 2980 2980 2981 2982 2983 2983 2982 2982 2982 2982 2983 2984 2984 2985 2986 2987 2988 2990 2991 2993 2995 2997 2999 3001 3003 3004 3007 3009 3010 3011 3013 3014 3015 3016 3017 3018 3020 3020 3021 3022 3023 3023 3024 3025 3025 3026 3027 3028 3028 3029 3029 3029 3030 3030 3030 3031 3031 3031 3032 3032 3032 3032 3032 3031 3031
2984 2983 2983 2983 2982 2981 2981 2982 2982 2982 2981 2981 2979 2978 2978 2979 2979 2978 2978 2979 2980 2980 2980 2980 2980 2981 2982 2982 2983 2983 2983 2983 2984 2984 2985 2986 2987 2988 2989 2990 2992 2994 2996 2997 2999 3002 3003 3005 3007 3009 3010 3012 3013 3014 3014 3015 3016 3017 3018 3018 3019 3019 3020 3021 3021 3022 3023 3024 3024 3025 3025 3026 3026 3026 3027 3027 3028 3029 3029 3029 3030 3030 3029 3029 3029 3028 3028
2984 2983 2982 2981 2980 2979 2979 2979 2980 2980 2980 2979 2978 2977 2976 2977 2977 2976 2977 2978 2979 2979 2980 2980 2980 2980 2980 2981 2982 2983 2983 2983 2984 2984 2985 2986 2987 2988 2989 2991 2992 2993 2995 2997 2998 3000 3002 3004 3006 3007 3009 3010 3011 3012 3013 3014 3014 3015 3015 3016 3017 3017 3018 3019 3019 3020 3021 3022 3022 3022 3023 3023 3024 3024 3025 3025 3026 3027 3027 3027 3027 3027 3026 3026 3026 3025 3025
2982 2981 2981 2980 2979 2978 2977 2977 2977 2978 2978 2977 2976 2975 2975 2975 2975 2975 2975 2976 2977 2978 2979 2979 2979 2979 2980 2981 2981 2982 2983 2983 2983 2984 2985 2985 2987 2988 2989 2990 2991 2992 2993 2995 2996 2997 2999 3001 3003 3005 3006 3007 3008 3009 3010 3012 3012 3013 3013 3014 3015 3015 3016 3017 3018 3019 3019 3020 3020 3020 3021 3021 3022 3022 3023 3023 3024 3024 3024 3024 3024 3024 3023 3023 3023 3022 3022
2980 2979 2978 2978 2977 2977 2976 2976 2975 2975 2976 2975 2974 2974 2973 2973 2974 2974 2974 2974 2975 2976 2977 2978 2978 2979 2979 2980 2981 2981 2982 2982 2983 2984 2986 2986 2987 2988 2988 2989 2989 2990 2992 2993 2994 2996 2997 2999 3000 3002 3003 3004 3006 3007 3009 3010 3011 3011 3012 3012 3013 3014 3014 3015 3016 3017 3017 3018 3018 3018 3019 3019 3020 3020 3021 3021 3021 3022 3022 3022 3021 3021 3020 3020 3020 3019 3019
2978 2977 2976 2976 2975 2975 2975 2975 2974 2974 2973 2973 2973 2972 2972 2972 2972 2972 2973 2973 2974 2975 2977 2978 2978 2978 2979 2979 2980 2980 2980 2981 2982 2984 2986 2987 2987 2988 2988 2988 2988 2989 2990 2992 2993 2995 2996 2997 2998 2999 3000 3002 3004 3006 3007 3008 3009 3010 3010 3011 3011 3012 3013 3013 3014 3015 3015 3016 3016 3016 3017 3017 3018 3018 3018 3019 3019 3019 3018 3018 3018 3018 3017 3017 3017 3016 3016
2975 2975 2974 2973 2973 2972 2972 2973 2973 2973 2972 2971 2971 2971 2970 2971 2971 2971 2972 2972 2973 2974 2975 2976 2977 2978 2978 2978 2978 2979 2979 2980 2982 2984 2985 2986 2986 2987 2987 2988 2989 2990 2991 2991 2992 2993 2994 2996 2997 2998 2999 3001 3002 3004 3005 3006 3007 3008 3008 3009 3010 3010 3011 3012 3012 3013 3013 3013 3014 3014 3014 3015 3015 3016 3016 3016 3016 3016 3015 3015 3014 3014 3014 3013 3013 3013 3013
2972 2972 2971 2971 2970 2970 2970 2970 2971 2971 2970 2970 2970 2970 2970 2970 2970 2970 2970 2970 2971 2972 2973 2975 2976 2977 2977 2977 2977 2977 2977 2978 2980 2982 2983 2984 2985 2986 2987 2987 2988 2989 2990 2991 2991 2992 2994 2996 2996 2997 2998 2999 3000 3002 3004 3005 3006 3006 3007 3007 3008 3009 3010 3010 3010 3010 3011 3011 3011 3012 3012 3013 3013 3014 3014 3014 3013 3013 3012 3012 3011 3011 3010 3010 3009 3010 3010
2968 2968 2968 2968 2968 2968 2968 2968 2968 2969 2968 2967 2967 2969 2969 2969 2969 2969 2969 2969 2970 2971 2971 2973 2974 2975 2975 2975 2975 2975 2975 2977 2978 2980 2981 2983 2984 2985 2985 2986 2986 2987 2988 2989 2990 2992 2994 2995 2995 2996 2997 2998 2999 3001 3003 3004 3004 3005 3005 3005 3007 3007 3008 3008 3008 3008 3009 3009 3009 3010 3010 3011 3011 3011 3011 3010 3010 3010 3009 3008 3008 3007 3007 3006 3006 3007 3007
2965 2965 2965 2965 2965 2965 2965 2965 2965 2966 2966 2965 2964 2965 2967 2967 2967 2968 2968 2968 2969 2969 2969 2970 2971 2972 2973 2973 2973 2973 2974 2975 2977 2978 2979 2980 2981 2983 2984 2984 2985 2986 2987 2988 2989 2991 2992 2994 2994 2995 2997 2997 2998 3000 3001 3002 3003 3003 3003 3003 3004 3005 3006 3006 3006 3007 3007 3007 3007 3008 3008 3008 3008 3008 3007 3007 3007 3006 3006 3005 3005 3004 3004 3003 3003 3004 3003
2963 2962 2962 2962 2962 2962 2962 2962 2963 2963 2963 2962 2962 2963 2964 2965 2966 2967 2967 2967 2968 2968 2968 2968 2969 2969 2970 2970 2970 2971 2973 2974 2975 2976 2976 2977 2979 2980 2982 2983 2984 2985 2986 2987 2988 2989 2991 2993 2994 2994 2995 2995 2996 2998 2999 3000 3000 3000 3000 3001 3002 3003 3003 3004 3004 3004 3005 3005 3005 3005 3005 3005 3004 3004 3004 3004 3004 3003 3003 3002 3001 3001 3001 3001 3001 3001 3001
2960 2960 2959 2959 2959 2959 2959 2959 2960 2960 2961 2960 2960 2961 2963 2964 2965 2966 2966 2966 2966 2966 2966 2966 2967 2967 2967 2967 2968 2969 2971 2973 2974 2974 2975 2976 2977 2978 2980 2981 2982 2984 2985 2986 2988 2989 2990 2991 2991 2992 2993 2993 2994 2995 2997 2997 2997 2998 2998 2999 2999 3000 3001 3001 3002 3002 3002 3002 3002 3002 3002 3001 3001 3001 3001 3001 3000 3000 3000 2999 2999 2999 2998 2998 2998 2998 2999
2958 2957 2957 2957 2957 2957 2956 2956 2957 2957 2958 2958 2959 2960 2962 2963 2964 2964 2965 2965 2965 2965 2965 2965 2965 2965 2966 2966 2966 2968 2969 2971 2972 2972 2973 2974 2975 2976 2978 2979 2981 2982 2984 2985 2986 2987 2988 2989 2989 2990 2990 2991 2991 2992 2993 2994 2994 2995 2996 2997 2997 2998 2999 3000 3000 3000 3000 2999 2999 2999 2999 2998 2998 2998 2998 2997 2997 2997 2997 2996 2996 2996 2996 2996 2997 2997 2997
2956 2955 2955 2956 2956 2956 2955 2954 2955 2955 2956 2957 2958 2960 2961 2962 2963 2963 2963 2963 2963 2963 2964 2964 2964 2965 2965 2965 2966 2967 2968 2969 2969 2970 2971 2972 2974 2975 2976 2978 2979 2980 2982 2983 2984 2985 2986 2987 2987 2988 2988 2988 2989 2989 2990 2991 2992 2993 2994 2995 2995 2996 2997 2997 2997 2997 2997 2996 2996 2996 2996 2996 2996 2995 2995 2995 2995 2995 2995 2995 2995 2995 2995 2995 2995 2995 2995
2954 2953 2954 2954 2955 2954 2954 2954 2955 2955 2955 2957 2958 2959 2960 2961 2961 2961 2961 2962 2962 2963 2963 2963 2964 2964 2965 2965 2966 2966 2967 2968 2969 2969 2970 2971 2972 2974 2975 2976 2977 2978 2979 2981 2982 2983 2984 2984 2985 2986 2986 2986 2986 2987 2988 2989 2989 2990 2991 2992 2993 2994 2994 2994 2994 2994 2994 2993 2993 2993 2993 2993 2993 2993 2993 2993 2993 2993 2993 2993 2993 2993 2993 2993 2993 2993 2993
2952 2952 2952 2953 2953 2953 2954 2955 2955 2955 2955 2956 2958 2958 2959 2960 2960 2960 2960 2961 2961 2962 2962 2963 2963 2964 2965 2965 2966 2966 2967 2968 2968 2969 2969 2970 2971 2972 2973 2974 2975 2976 2977 2979 2980 2981 2981 2981 2982 2982 2983 2984 2984 2985 2986 2986 2987 2988 2989 2990 2990 2991 2991 2991 2991 2991 2991 2991 2990 2990 2990 2990 2990 2991 2991 2991 2991 2991 2991 2991 2991 2991 2991 2991 2991 2991 2991
2951 2951 2952 2953 2953 2953 2953 2954 2954 2955 2956 2957 2957 2958 2958 2959 2959 2959 2960 2960 2960 2961 2962 2962 2963 2964 2964 2965 2966 2967 2967 2967 2967 2968 2968 2969 2970 2970 2971 2972 2973 2974 2975 2976 2977 2978 2978 2979 2979 2980 2981 2982 2983 2983 2984 2984 2985 2986 2987 2987 2987 2988 2988 2989 2989 2989 2989 2989 2989 2989 2988 2988 2989 2989 2989 2989 2989 2989 2989 2989 2989 2989 2989 2989 2989 2989 2989
2949 2950 2952 2953 2953 2952 2953 2954 2955 2956 2956 2957 2957 2957 2958 2959 2959 2959 2959 2959 2960 2961 2962 2963 2963 2964 2964 2965 2965 2966 2966 2966 2966 2966 2967 2967 2968 2969 2970 2971 2971 2972 2973 2973 2974 2975 2976 2976 2977 2978 2979 2980 2981 2981 2982 2983 2983 2984 2984 2985 2985 2986 2986 2986 2987 2987 2987 2986 2986 2987 2987 2987 2987 2987 2987 2987 2987 2987 2987 2987 2987 2987 2987 2987 2987 2987 2987
2950 2951 2951 2952 2953 2953 2954 2955 2956 2956 2956 2956 2957 2957 2958 2959 2959 2959 2959 2960 2961 2962 2962 2963 2963 2963 2964 2964 2964 2964 2965 2965 2965 2965 2966 2966 2967 2967 2968 2969 2970 2971 2971 2972 2973 2973 2974 2975 2976 2977 2978 2978 2979 2979 2980 2981 2981 2982 2982 2983 2983 2984 2984 2984 2985 2985 2984 2984 2985 2985 2985 2985 2985 2985 2984 2984 2984 2984 2984 2985 2985 2985 2985 2985 2985 2986 2986
2950 2951 2952 2953 2953 2954 2955 2956 2956 2956 2956 2956 2957 2957 2958 2958 2958 2959 2960 2961 2962 2963 2963 2962 2962 2962 2963 2963 2963 2963 2963 2964 2964 2965 2965 2966 2966 2967 2967 2968 2969 2970 2971 2971 2972 2973 2974 2974 2975 2975 2976 2976 2977 2977 2978 2978 2979 2980 2980 2981 2981 2982 2982 2982 2982 2982 2982 2983 2983 2983 2983 2983 2982 2982 2982 2982 2982 2982 2983 2983 2983 2983 2983 2984 2984 2984 2984
2950 2951 2953 2953 2954 2955 2956 2956 2956 2955 2955 2956 2957 2957 2957 2958 2958 2959 2961 2962 2963 2963 2962 2962 2962 2962 2963 2964 2964 2964 2963 2963 2964 2964 2964 2965 2965 2966 2966 2967 2968 2968 2969 2970 2971 2971 2972 2973 2973 2973 2974 2975 2975 2975 2976 2977 2977 2978 2979 2979 2979 2980 2980 2980 2981 2981 2981 2981 2981 2981 2981 2980 2980 2981 2981 2981 2981 2981 2981 2981 2982 2982 2982 2982 2983 2983 2983